Location: Bigorno
(42.5273°N, 9.2990°E)
Time: 13:00:34
(UTC+00:00)

Daily predictions for brighter satellites

Satellite Brightness Start Highest point End
(mag) Time Altitude Azimuth Time Altitude Azimuth Time Altitude Azimuth
COBE Rocket 4.3 16:15:01 10° NNE 16:19:26 39° E 16:23:52 10° SSE
STARLINK-29 3.9 16:18:28 10° WSW 16:21:53 45° NNW 16:25:18 10° NE
Cosmos 1862 Rocket 3.8 16:19:17 10° SSW 16:23:38 76° W 16:28:04 10° N
Cosmos 2369 Rocket 3.6 16:21:32 10° N 16:24:57 16° NE 16:28:21 10° E
Cosmos 1703 Rocket 4.1 16:23:19 10° SSE 16:27:31 41° E 16:31:44 10° NNE
SMAP 3.2 16:24:15 10° SSE 16:28:45 52° ENE 16:33:17 10° N
CORIOLIS 4.4 16:25:17 10° SE 16:30:30 49° ENE 16:35:44 10° N
SL-16 R/B 2.4 16:25:21 10° S 16:30:51 54° ESE 16:36:24 10° NNE
Feng Yun 1-1 Rocket 4.2 16:27:21 10° SSE 16:32:38 60° ENE 16:37:57 10° N
Shenzhou-11 Module 3.6 16:30:19 10° W 16:32:47 30° SSW 16:35:14 10° SE
Cosmos 1743 3.8 16:30:01 10° NNE 16:33:11 23° ENE 16:36:19 10° SE
Cosmos 1174 4.1 16:30:01 10° SSW 16:35:11 77° ESE 16:39:17 10° NE
Cosmos 1536 2.9 16:31:24 10° N 16:35:25 86° W 16:39:23 10° S
Sich 1 Rocket 4.4 16:34:05 10° NNE 16:37:53 28° ENE 16:41:39 10° SE
Cosmos 2237 Rocket 3.0 16:32:55 10° SW 16:38:28 52° WNW 16:44:02 10° NNE
CZ-4B R/B 4.2 16:37:10 10° NNW 16:39:29 17° WNW 16:41:47 10° WSW
ALOS 4.3 16:36:57 10° SSW 16:41:07 32° W 16:45:18 10° NNW
Lacrosse 5 rocket 3.5 16:38:39 10° WNW 16:41:25 16° NNW 16:44:04 10° NNE
Cosmos 1812 4.3 16:40:03 10° SW 16:43:38 36° WNW 16:47:14 10° N
Cosmos 2219 Rocket 4.3 16:41:30 10° W 16:45:34 20° NW 16:49:41 10° N
Centaur D-1A AC-31 3.7 16:43:50 10° SSW 16:45:51 14° SSE 16:48:47 10° SE
Okean O Rocket 3.4 16:42:58 10° SSW 16:46:56 35° W 16:50:56 10° NNW
STARLINK-43 3.4 16:43:23 10° SW 16:47:05 71° SE 16:50:01 15° ENE
SL-4 R/B 3.4 16:44:12 10° NW 16:47:11 21° N 16:49:31 14° NE
Cosmos 2333 Rocket 4.4 16:43:34 10° W 16:47:42 20° NW 16:51:51 10° N
Cosmos 1943 Rocket 3.1 16:43:13 10° N 16:47:54 26° NE 16:52:31 10° ESE
Cosmos 1140 Rocket 3.9 16:43:39 10° S 16:48:28 43° ESE 16:53:18 10° NNE
USA 267 3.3 16:42:14 10° ESE 16:48:39 60° NNE 16:55:04 10° NW
Abrixas rocket 2.8 16:46:33 10° SW 16:49:23 39° SE 16:51:18 17° E
Okean 1 3.7 16:48:33 10° SSE 16:52:18 41° E 16:56:03 10° NNE
Envisat 3.2 16:49:01 10° SE 16:53:53 49° ENE 16:58:47 10° N
Cosmos 2242 Rocket 4.4 16:51:03 10° SSW 16:55:33 56° W 17:00:05 10° N
Cosmos 1092 Rocket 4.0 16:50:07 10° S 16:56:26 89° W 17:02:42 10° N
Aureole 1 Rocket 3.4 16:53:48 10° SW 16:56:38 41° WNW 16:59:51 10° N
Okean 1-7 3.0 16:52:52 10° S 16:57:12 74° E 17:01:35 10° NNE
Cosmos 292 Rocket 4.4 16:52:52 10° NNW 16:57:41 61° WSW 17:02:26 10° S
Cosmos 1908 Rocket 3.9 16:56:28 10° NNW 17:00:50 68° W 17:05:08 10° S
CSL-04 Rocket 4.4 16:58:06 10° ESE 17:02:32 28° ENE 17:07:01 10° N
Cosmos 407 Rocket 3.5 16:57:30 10° SSW 17:02:42 85° ESE 17:08:00 10° NNE
STARLINK-80 3.6 17:02:09 10° SW 17:05:53 57° SE 17:07:55 24° ENE
Cosmos 1300 Rocket 4.5 17:05:38 10° NNE 17:09:13 25° ENE 17:12:47 10° SE
COSMO-SKYMED 1 2.9 17:05:20 11° NNE 17:09:14 43° E 17:13:22 10° S
YAOGAN 3 4.5 17:05:24 10° SSE 17:09:44 75° ENE 17:14:06 10° N
YAOGAN 1 3.3 17:07:20 10° SE 17:11:03 29° ENE 17:14:47 10° N
CZ-4 R/B 1.8 17:08:40 10° SE 17:12:11 34° ENE 17:15:41 10° N
Okean-O 2.5 17:07:55 10° SSE 17:12:20 80° ENE 17:16:47 10° N
Meteor 1-19 Rocket 4.3 17:07:52 10° SSE 17:13:08 49° E 17:18:22 10° NNE
H-2A R/B 3.8 17:13:17 10° S 17:16:49 45° W 17:20:22 10° NNW
Cosmos 1441 Rocket 3.8 17:13:49 10° NNW 17:17:32 56° W 17:21:12 10° S
NOAA 12 4.2 17:13:57 10° SSE 17:19:15 84° WSW 17:24:34 10° NNW
CSL-04 Debris 4.4 17:19:03 10° SE 17:24:11 44° ENE 17:29:19 10° N
Cosmos 2297 4.2 17:18:40 10° NNW 17:24:18 64° WSW 17:29:51 10° S
Cosmos 921 Rocket 3.7 17:20:51 10° NNW 17:25:04 55° WSW 17:29:21 10° S
NOSS 7 (H) 4.1 17:24:08 10° SW 17:27:32 86° NW 17:28:18 47° NNE
Okean 3 3.6 17:24:14 10° SSE 17:28:15 48° E 17:29:51 31° NE
Cosmos 1975 2.7 17:25:24 10° N 17:29:24 69° E 17:33:23 10° SSE
S3M 4.0 17:27:00 10° N 17:33:06 57° ENE 17:39:06 10° SSE
SKYMED 3 4.4 17:29:41 14° NNE 17:33:22 81° ESE 17:37:42 10° S
Cosmos 2266 Rocket 4.3 17:29:34 10° SSE 17:35:33 43° E 17:40:17 16° NNE
Cosmos 1515 3.6 17:32:53 10° S 17:36:36 59° E 17:37:12 51° NE
Lacrosse 5 2.1 17:32:36 10° SSW 17:37:32 52° SE 17:38:59 39° E
Meteor 1-12 Rocket 4.4 17:31:58 10° N 17:37:38 49° ENE 17:43:09 10° SSE
YAOGAN 6 2.6 17:36:25 10° S 17:39:57 78° WSW 17:43:35 10° NNW
Cosmos 1553 Rocket 4.0 17:37:22 10° N 17:43:48 90° NNE 17:50:14 10° S
Cosmos 2151 Rocket 3.6 17:39:55 10° N 17:44:15 54° E 17:48:32 10° SSE
Uosat 12 SS-18 rocket 4.0 17:40:49 10° NNW 17:45:29 64° NE 17:46:21 51° ESE
STARLINK-48 3.3 17:43:18 10° SW 17:47:11 88° NW 17:47:34 72° NE
Cosmos 1867 3.9 17:42:32 10° NW 17:47:58 68° WSW 17:53:20 10° SSE
CZ-4C R/B 2.1 17:43:39 10° SSW 17:48:23 52° ESE 17:49:23 45° E
Meteor 2-9 Rocket 4.2 17:44:31 10° N 17:50:25 88° E 17:56:09 10° S
NOAA 11 4.1 17:45:46 10° SSE 17:51:06 59° ENE 17:56:30 10° N
Cosmos 1943 3.2 17:50:15 10° S 17:55:46 56° ESE 17:56:42 50° ENE
SKYMED 2 4.2 17:53:59 16° N 17:57:22 55° WNW 18:01:35 10° SSW
USA 215 4.2 17:54:37 22° NNE 17:58:06 38° NNW 18:03:59 10° W
Cosmos 1461 4.3 17:55:36 10° S 17:57:32 25° SSE 17:57:32 25° SSE
Meteor 1-13 Rocket 4.1 17:53:54 10° S 17:59:23 59° E 18:00:22 51° NE
DMSP B5D1-3 4.4 18:06:05 64° ENE 18:06:40 72° ESE 18:11:45 10° S
BREEZE-M R/B 4.0 18:05:32 10° WNW 18:08:07 31° NW 18:08:07 31° NW
Cosmos 2369 Rocket 2.1 18:04:08 10° NNW 18:09:48 88° ENE 18:13:17 24° SSE
Okean 2 Rocket 4.0 18:06:29 10° NNW 18:10:50 50° W 18:15:11 10° SSW
SL-16 R/B 4.1 18:10:39 10° WSW 18:15:17 25° NW 18:19:41 11° N
IRIDIUM 104 4.4 18:12:57 10° S 18:18:10 76° W 18:20:58 28° N
Cosmos 2315 Rocket 4.2 18:13:44 10° N 18:26:35 - SSE 18:18:41 52° NNE
Cosmos 883 Rocket 4.3 18:14:39 10° N 18:21:01 81° E 18:27:16 10° S
Cosmos 1603 3.9 18:16:25 10° SSW 18:22:06 68° WNW 18:23:46 46° N
SL-4 R/B 4.1 18:23:43 10° NW 18:25:08 20° NW 18:25:08 20° NW
USA 267 4.2 18:25:37 10° SSE 18:31:46 43° SW 18:37:58 10° WNW
Cosmos 1943 Rocket 2.9 18:26:30 10° NW 18:31:55 50° WSW 18:37:16 10° S
Meteor 2-8 Rocket 4.4 18:28:58 10° N 18:40:14 15° S 18:41:08 10° S
Cosmos 1741 Rocket 4.3 18:30:19 10° SSW 18:34:47 63° SW 18:34:47 63° SW
USA 81 4.3 18:31:53 10° SSW 18:36:44 66° WSW 18:36:44 66° WSW
NOSS 3-1 (C) 4.0 18:32:53 10° NW 18:40:34 90° SW 18:43:02 52° SE
CZ-4 R/B 4.1 18:44:43 10° SW 18:47:18 17° W 18:49:54 10° NW
Gbstr 26 Del rocket 4.1 18:42:57 10° WSW 18:49:19 68° WNW 18:49:19 68° WNW
USA 229 DEB 3.9 18:44:03 10° NW 18:51:21 76° WSW 18:52:32 64° S
USA 229 3.9 18:44:08 10° NW 18:51:26 77° WSW 18:52:33 65° S
NOSS 3-1 (A) 4.0 18:49:20 10° NW 18:56:30 77° N 18:56:30 77° N
Cosmos 2344 4.4 18:50:26 10° NW 19:00:28 86° NE 19:05:29 46° SE
Lacrosse 5 4.1 19:16:02 10° W 19:18:13 22° W 19:18:13 22° W
CZ-3B R/B 4.2 19:18:57 10° SW 19:20:10 15° SSW 19:20:10 15° SSW
CZ-4C R/B 4.4 19:32:41 10° W 19:34:36 20° W 19:34:36 20° W
